Torna al catalogo

STARLINK-2211

AttivoComunicazioniVLEO
NORAD 47778·PAYLOAD·🇺🇸 United States

Lanciato Mar 4, 2021 da Cape Canaveral Space Force Station

Loading…

Prossimi Passaggi (prossime 24 ore)

TLE

AggiornatoSource: CelesTrak SupGP

Epoca: Sep 14, 2026, 13:40 UTC

1 47778C 21017BJ  26257.56993056  .00064193  00000+0  47109-3 0  2572
2 47778  53.1556  17.1712 0004765 337.5437 242.7223 15.72411242    15

Traccia STARLINK-2211 in tempo reale con AllMySat

Download on the App Store